| time (UTC) | temp F | wind direction | speed MPH | gust MPH | rain 1hr in | rain 24hr in | rain mn in | humidity % | barometer mb |
| 20260510230037 | 52 | 254 | 0.0 | 0.0 | 0.00 | 0.00 | 0.01 | 59 | 1017.4 |
| 20260510225535 | 52 | 246 | 0.0 | 0.0 | 0.00 | 0.00 | 0.01 | 58 | 1017.3 |
| 20260510225038 | 52 | 200 | 0.0 | 0.0 | 0.00 | 0.00 | 0.01 | 57 | 1017.2 |
| 20260510224535 | 52 | 250 | 0.0 | 0.0 | 0.00 | 0.00 | 0.01 | 57 | 1017.1 |
| 20260510224034 | 52 | 276 | 0.0 | 0.0 | 0.00 | 0.00 | 0.01 | 56 | 1017.2 |
| 20260510223538 | 52 | 281 | 0.0 | 0.0 | 0.00 | 0.00 | 0.01 | 57 | 1017.1 |
| 20260510223034 | 52 | 256 | 0.0 | 0.0 | 0.00 | 0.00 | 0.01 | 57 | 1017.1 |
| 20260510222532 | 52 | 270 | 0.0 | 0.0 | 0.00 | 0.00 | 0.01 | 57 | 1017.0 |
| 20260510222034 | 52 | 242 | 0.0 | 0.0 | 0.00 | 0.00 | 0.01 | 58 | 1017.0 |
| 20260510221532 | 52 | 273 | 0.0 | 0.0 | 0.00 | 0.00 | 0.01 | 58 | 1017.0 |
| 20260510221032 | 52 | 226 | 0.0 | 0.0 | 0.00 | 0.00 | 0.01 | 56 | 1017.0 |
| 20260510220532 | 52 | 222 | 0.0 | 0.0 | 0.00 | 0.00 | 0.01 | 57 | 1016.9 |
| 20260510220033 | 52 | 216 | 0.0 | 0.0 | 0.00 | 0.00 | 0.01 | 57 | 1017.0 |
| 20260510215531 | 52 | 157 | 0.0 | 0.0 | 0.00 | 0.00 | 0.01 | 56 | 1016.9 |
| 20260510215031 | 52 | 227 | 0.0 | 0.0 | 0.00 | 0.00 | 0.01 | 56 | 1016.9 |
| 20260510214531 | 52 | 219 | 0.0 | 0.0 | 0.00 | 0.00 | 0.01 | 56 | 1016.8 |
| 20260510214030 | 52 | 239 | 0.0 | 0.0 | 0.00 | 0.00 | 0.01 | 59 | 1016.7 |
| 20260510213528 | 52 | 266 | 0.0 | 0.0 | 0.00 | 0.00 | 0.01 | 60 | 1016.6 |
| 20260510213029 | 52 | 218 | 0.0 | 0.0 | 0.00 | 0.00 | 0.01 | 60 | 1016.5 |
| 20260510212528 | 53 | 223 | 0.0 | 0.0 | 0.00 | 0.00 | 0.01 | 60 | 1016.4 |
| 20260510212029 | 53 | 225 | 0.0 | 0.0 | 0.00 | 0.00 | 0.01 | 58 | 1016.3 |
| 20260510211527 | 53 | 285 | 0.0 | 0.0 | 0.00 | 0.00 | 0.01 | 56 | 1016.3 |
| 20260510211026 | 53 | 211 | 0.0 | 0.0 | 0.00 | 0.00 | 0.01 | 58 | 1016.3 |
| 20260510210527 | 53 | 213 | 0.0 | 0.0 | 0.00 | 0.00 | 0.01 | 59 | 1016.1 |
| 20260510210024 | 53 | 221 | 0.0 | 0.0 | 0.00 | 0.00 | 0.01 | 59 | 1016.0 |
| 20260510205524 | 53 | 223 | 0.0 | 0.0 | 0.00 | 0.00 | 0.01 | 59 | 1016.0 |
| 20260510205024 | 53 | 217 | 0.0 | 0.0 | 0.00 | 0.00 | 0.01 | 59 | 1016.0 |
| 20260510204524 | 53 | 168 | 0.0 | 0.0 | 0.00 | 0.00 | 0.01 | 58 | 1015.8 |
| 20260510204026 | 53 | 169 | 0.0 | 0.0 | 0.00 | 0.00 | 0.01 | 58 | 1015.7 |
| 20260510203522 | 54 | 240 | 0.0 | 0.0 | 0.00 | 0.00 | 0.01 | 57 | 1015.6 |
| 20260510203024 | 54 | 227 | 0.0 | 0.0 | 0.00 | 0.00 | 0.01 | 57 | 1015.6 |
| 20260510202522 | 54 | 199 | 0.0 | 0.0 | 0.00 | 0.00 | 0.01 | 57 | 1015.6 |
| 20260510202024 | 54 | 175 | 0.0 | 0.0 | 0.00 | 0.00 | 0.01 | 56 | 1015.5 |
| 20260510201520 | 54 | 205 | 0.0 | 0.0 | 0.00 | 0.00 | 0.01 | 55 | 1015.5 |
| 20260510201020 | 54 | 213 | 0.0 | 0.0 | 0.00 | 0.00 | 0.01 | 56 | 1015.5 |
| 20260510200520 | 54 | 200 | 0.0 | 0.0 | 0.00 | 0.00 | 0.01 | 56 | 1015.5 |
| 20260510200020 | 54 | 184 | 0.0 | 0.0 | 0.00 | 0.00 | 0.01 | 55 | 1015.5 |
| 20260510195519 | 55 | 184 | 0.0 | 0.0 | 0.00 | 0.00 | 0.01 | 54 | 1015.5 |
| 20260510195019 | 56 | 237 | 0.0 | 0.0 | 0.00 | 0.00 | 0.01 | 52 | 1015.6 |
| 20260510194521 | 56 | 235 | 0.0 | 0.0 | 0.00 | 0.00 | 0.01 | 53 | 1015.5 |
| 20260510194022 | 56 | 217 | 0.0 | 0.0 | 0.00 | 0.00 | 0.01 | 54 | 1015.5 |
| 20260510193519 | 56 | 244 | 0.0 | 0.0 | 0.00 | 0.00 | 0.01 | 53 | 1015.4 |
| 20260510193018 | 55 | 242 | 0.0 | 0.0 | 0.00 | 0.00 | 0.01 | 55 | 1015.4 |
| 20260510192518 | 55 | 252 | 0.0 | 0.0 | 0.00 | 0.00 | 0.01 | 53 | 1015.4 |
| 20260510192018 | 54 | 231 | 0.0 | 0.0 | 0.00 | 0.00 | 0.01 | 54 | 1015.3 |
| 20260510191517 | 54 | 198 | 0.0 | 0.0 | 0.00 | 0.00 | 0.01 | 55 | 1015.3 |
| 20260510191022 | 54 | 234 | 0.0 | 0.0 | 0.00 | 0.00 | 0.01 | 54 | 1015.3 |
| 20260510190516 | 55 | 194 | 0.0 | 0.0 | 0.00 | 0.00 | 0.01 | 54 | 1015.3 |
| 20260510190017 | 55 | 250 | 0.0 | 0.0 | 0.00 | 0.00 | 0.01 | 53 | 1015.3 |
| 20260510185520 | 55 | 156 | 0.0 | 0.0 | 0.00 | 0.00 | 0.01 | 54 | 1015.3 |
| 20260510185017 | 54 | 208 | 0.0 | 0.0 | 0.00 | 0.00 | 0.01 | 56 | 1015.3 |
| 20260510184515 | 54 | 219 | 0.0 | 0.0 | 0.00 | 0.00 | 0.01 | 54 | 1015.2 |
| 20260510184015 | 55 | 217 | 0.0 | 0.0 | 0.00 | 0.00 | 0.01 | 54 | 1015.1 |
| 20260510183516 | 55 | 169 | 0.0 | 0.0 | 0.00 | 0.00 | 0.01 | 56 | 1015.1 |
| 20260510183015 | 54 | 251 | 0.0 | 0.0 | 0.00 | 0.00 | 0.01 | 55 | 1015.0 |
| 20260510182515 | 53 | 244 | 0.0 | 0.0 | 0.00 | 0.00 | 0.01 | 55 | 1015.2 |
| 20260510182014 | 53 | 266 | 0.0 | 0.0 | 0.00 | 0.00 | 0.01 | 57 | 1015.1 |
| 20260510181514 | 54 | 159 | 0.0 | 0.0 | 0.00 | 0.00 | 0.01 | 55 | 1015.1 |
| 20260510181013 | 55 | 137 | 0.0 | 0.0 | 0.00 | 0.00 | 0.01 | 55 | 1014.9 |
| 20260510180512 | 55 | 181 | 0.0 | 0.0 | 0.00 | 0.00 | 0.01 | 56 | 1014.8 |
| 20260510180013 | 54 | 201 | 0.0 | 0.0 | 0.00 | 0.00 | 0.01 | 55 | 1014.9 |
| 20260510175513 | 55 | 245 | 0.0 | 0.0 | 0.00 | 0.00 | 0.01 | 55 | 1014.9 |
| 20260510175014 | 55 | 174 | 0.0 | 0.0 | 0.00 | 0.00 | 0.01 | 54 | 1014.8 |
| 20260510174512 | 56 | 259 | 0.0 | 0.0 | 0.00 | 0.00 | 0.01 | 55 | 1014.9 |
| 20260510174012 | 55 | 258 | 0.0 | 0.0 | 0.00 | 0.00 | 0.01 | 53 | 1014.8 |
| 20260510173511 | 55 | 287 | 0.0 | 0.0 | 0.00 | 0.00 | 0.01 | 39 | 1014.8 |
| 20260510173011 | 56 | 254 | 0.0 | 0.0 | 0.00 | 0.00 | 0.01 | 39 | 1014.6 |
| 20260510172511 | 57 | 293 | 0.0 | 0.0 | 0.00 | 0.00 | 0.01 | 38 | 1014.6 |
| 20260510172011 | 57 | 317 | 0.0 | 0.0 | 0.00 | 0.00 | 0.01 | 38 | 1014.5 |
| 20260510171510 | 57 | 302 | 0.0 | 0.0 | 0.00 | 0.00 | 0.01 | 40 | 1014.5 |
| 20260510171009 | 56 | 311 | 0.0 | 0.0 | 0.00 | 0.00 | 0.01 | 38 | 1014.4 |
| 20260510170511 | 57 | 266 | 0.0 | 0.0 | 0.00 | 0.00 | 0.01 | 42 | 1014.4 |
| 20260510170009 | 57 | 323 | 0.0 | 0.0 | 0.00 | 0.00 | 0.01 | 39 | 1014.4 |
| 20260510165510 | 56 | 342 | 0.0 | 0.0 | 0.00 | 0.00 | 0.01 | 38 | 1014.4 |
| 20260510165011 | 55 | 325 | 0.0 | 0.0 | 0.00 | 0.00 | 0.01 | 38 | 1014.6 |
| 20260510164521 | 56 | 294 | 0.0 | 0.0 | 0.00 | 0.00 | 0.01 | 39 | 1014.5 |
| 20260510164007 | 56 | 346 | 0.0 | 0.0 | 0.00 | 0.00 | 0.01 | 40 | 1014.5 |
| 20260510163506 | 56 | 297 | 0.0 | 0.0 | 0.00 | 0.00 | 0.01 | 39 | 1014.5 |
| 20260510163007 | 55 | 267 | 0.0 | 0.0 | 0.00 | 0.00 | 0.01 | 40 | 1014.5 |
| 20260510162507 | 55 | 300 | 0.0 | 0.0 | 0.00 | 0.00 | 0.01 | 39 | 1014.6 |
| 20260510162011 | 55 | 222 | 0.0 | 0.0 | 0.00 | 0.00 | 0.01 | 38 | 1014.5 |
| 20260510161505 | 55 | 302 | 0.0 | 0.0 | 0.00 | 0.00 | 0.01 | 42 | 1014.5 |
| 20260510161005 | 54 | 296 | 0.0 | 0.0 | 0.00 | 0.00 | 0.01 | 43 | 1014.5 |
| 20260510160508 | 55 | 287 | 0.0 | 0.0 | 0.00 | 0.00 | 0.01 | 41 | 1014.5 |
| 20260510160005 | 55 | 323 | 0.0 | 0.0 | 0.00 | 0.00 | 0.01 | 41 | 1014.5 |
| 20260510155504 | 54 | 290 | 0.0 | 0.0 | 0.00 | 0.00 | 0.01 | 41 | 1014.6 |
| 20260510155003 | 54 | 282 | 0.0 | 0.0 | 0.00 | 0.00 | 0.01 | 42 | 1014.6 |
| 20260510154500 | 54 | 294 | 0.0 | 0.0 | 0.00 | 0.00 | 0.01 | 43 | 1014.6 |
| 20260510154100 | 53 | 288 | 0.0 | 0.0 | 0.00 | 0.00 | 0.01 | 45 | 1014.6 |
| 20260510153559 | 52 | 264 | 0.0 | 0.0 | 0.00 | 0.00 | 0.01 | 45 | 1014.5 |
| 20260510153102 | 52 | 291 | 0.0 | 0.0 | 0.00 | 0.00 | 0.01 | 42 | 1014.7 |
| 20260510152558 | 53 | 289 | 0.0 | 0.0 | 0.00 | 0.00 | 0.01 | 45 | 1014.6 |
| 20260510152058 | 53 | 265 | 0.0 | 0.0 | 0.00 | 0.00 | 0.01 | 44 | 1014.5 |
| 20260510151557 | 52 | 290 | 0.0 | 0.0 | 0.00 | 0.00 | 0.01 | 46 | 1014.5 |
| 20260510151055 | 52 | 240 | 0.0 | 0.0 | 0.00 | 0.00 | 0.01 | 47 | 1014.5 |
| 20260510150557 | 52 | 321 | 0.0 | 0.0 | 0.00 | 0.00 | 0.01 | 47 | 1014.5 |
| 20260510150120 | 51 | 273 | 0.0 | 0.0 | 0.00 | 0.00 | 0.01 | 52 | 1014.3 |
| 20260510145553 | 51 | 267 | 0.0 | 0.0 | 0.00 | 0.00 | 0.01 | 49 | 1014.3 |
| 20260510145052 | 51 | 271 | 0.0 | 0.0 | 0.00 | 0.00 | 0.01 | 51 | 1014.3 |
| 20260510144553 | 52 | 254 | 0.0 | 0.0 | 0.00 | 0.00 | 0.01 | 52 | 1014.2 |
| 20260510144051 | 51 | 294 | 0.0 | 0.0 | 0.00 | 0.00 | 0.01 | 52 | 1014.1 |
| 20260510143553 | 51 | 313 | 0.0 | 0.0 | 0.00 | 0.00 | 0.01 | 53 | 1014.0 |
| 20260510143050 | 51 | 317 | 0.0 | 0.0 | 0.00 | 0.00 | 0.01 | 53 | 1013.9 |
| 20260510142549 | 51 | 262 | 0.0 | 0.0 | 0.00 | 0.00 | 0.01 | 54 | 1013.8 |
| 20260510142049 | 50 | 342 | 0.0 | 0.0 | 0.00 | 0.00 | 0.01 | 53 | 1013.8 |
| 20260510141548 | 50 | 294 | 0.0 | 0.0 | 0.00 | 0.00 | 0.01 | 54 | 1013.7 |
| 20260510141047 | 50 | 288 | 0.0 | 0.0 | 0.00 | 0.00 | 0.01 | 53 | 1013.7 |
| 20260510140548 | 50 | 56 | 0.0 | 0.0 | 0.00 | 0.00 | 0.01 | 53 | 1013.7 |
| 20260510140046 | 50 | 260 | 0.0 | 0.0 | 0.00 | 0.00 | 0.01 | 53 | 1013.7 |
| 20260510135546 | 50 | 279 | 0.0 | 0.0 | 0.00 | 0.00 | 0.01 | 55 | 1013.5 |
| 20260510135047 | 49 | 311 | 0.0 | 0.0 | 0.00 | 0.00 | 0.01 | 53 | 1013.5 |
| 20260510134546 | 49 | 263 | 0.0 | 0.0 | 0.00 | 0.00 | 0.01 | 53 | 1013.5 |
| 20260510134044 | 49 | 294 | 0.0 | 0.0 | 0.00 | 0.00 | 0.01 | 56 | 1013.4 |
| 20260510133547 | 49 | 253 | 0.0 | 0.0 | 0.00 | 0.00 | 0.01 | 57 | 1013.3 |
| 20260510133045 | 49 | 269 | 0.0 | 0.0 | 0.00 | 0.00 | 0.01 | 58 | 1013.2 |
| 20260510132543 | 49 | 314 | 0.0 | 0.0 | 0.00 | 0.00 | 0.01 | 57 | 1013.1 |
| 20260510132043 | 49 | 333 | 0.0 | 0.0 | 0.00 | 0.00 | 0.01 | 60 | 1013.1 |
| 20260510131542 | 49 | 239 | 0.0 | 0.0 | 0.00 | 0.00 | 0.01 | 59 | 1013.1 |
| 20260510131040 | 48 | 325 | 0.0 | 0.0 | 0.00 | 0.00 | 0.01 | 59 | 1013.0 |
| 20260510130540 | 49 | 284 | 0.0 | 0.0 | 0.00 | 0.00 | 0.01 | 60 | 1012.9 |
| 20260510130040 | 48 | 312 | 0.0 | 0.0 | 0.00 | 0.00 | 0.01 | 60 | 1012.8 |
| 20260510125538 | 48 | 296 | 0.0 | 0.0 | 0.00 | 0.00 | 0.01 | 61 | 1012.8 |
| 20260510125038 | 48 | 267 | 0.0 | 0.0 | 0.00 | 0.00 | 0.01 | 61 | 1012.7 |
| 20260510124539 | 48 | 297 | 0.0 | 0.0 | 0.00 | 0.00 | 0.01 | 62 | 1012.7 |
| 20260510124039 | 47 | 316 | 0.0 | 0.0 | 0.00 | 0.00 | 0.01 | 63 | 1012.7 |
| 20260510123538 | 47 | 281 | 0.0 | 0.0 | 0.00 | 0.00 | 0.01 | 62 | 1012.7 |
| 20260510123038 | 47 | 257 | 0.0 | 0.0 | 0.00 | 0.00 | 0.01 | 62 | 1012.7 |
| 20260510122537 | 47 | 288 | 0.0 | 0.0 | 0.00 | 0.00 | 0.01 | 64 | 1012.6 |
| 20260510122037 | 47 | 279 | 0.0 | 0.0 | 0.00 | 0.00 | 0.01 | 65 | 1012.6 |
| 20260510121535 | 47 | 263 | 0.0 | 0.0 | 0.00 | 0.00 | 0.01 | 65 | 1012.5 |
| 20260510121035 | 47 | 271 | 0.0 | 0.0 | 0.00 | 0.00 | 0.01 | 65 | 1012.4 |
| 20260510120535 | 47 | 240 | 0.0 | 0.0 | 0.00 | 0.00 | 0.01 | 65 | 1012.3 |
| 20260510120034 | 47 | 252 | 0.0 | 0.0 | 0.00 | 0.00 | 0.01 | 67 | 1012.2 |
| 20260510115533 | 47 | 267 | 0.0 | 0.0 | 0.00 | 0.00 | 0.01 | 66 | 1012.1 |
| 20260510115035 | 47 | 267 | 0.0 | 0.0 | 0.00 | 0.00 | 0.01 | 67 | 1012.1 |
| 20260510114532 | 47 | 256 | 0.0 | 0.0 | 0.00 | 0.00 | 0.01 | 66 | 1012.0 |
| 20260510114031 | 46 | 262 | 0.0 | 0.0 | 0.00 | 0.00 | 0.01 | 67 | 1011.8 |
| 20260510113530 | 46 | 267 | 0.0 | 0.0 | 0.00 | 0.00 | 0.01 | 67 | 1011.7 |
| 20260510113030 | 46 | 267 | 0.0 | 0.0 | 0.00 | 0.00 | 0.01 | 68 | 1011.5 |
| 20260510112534 | 46 | 254 | 0.0 | 0.0 | 0.00 | 0.00 | 0.01 | 69 | 1011.5 |
| 20260510112029 | 46 | 253 | 0.0 | 0.0 | 0.00 | 0.00 | 0.01 | 69 | 1011.4 |
| 20260510111528 | 46 | 265 | 0.0 | 0.0 | 0.00 | 0.00 | 0.01 | 69 | 1011.4 |
| 20260510111027 | 46 | 270 | 0.0 | 0.0 | 0.00 | 0.00 | 0.01 | 70 | 1011.3 |
| 20260510110527 | 46 | 270 | 0.0 | 0.0 | 0.00 | 0.00 | 0.01 | 69 | 1011.2 |
| 20260510110026 | 46 | 270 | 0.0 | 0.0 | 0.00 | 0.00 | 0.01 | 69 | 1011.0 |
| 20260510105525 | 46 | 274 | 0.0 | 0.0 | 0.00 | 0.00 | 0.01 | 69 | 1010.9 |
| 20260510105024 | 46 | 265 | 0.0 | 0.0 | 0.00 | 0.00 | 0.01 | 69 | 1010.8 |
| 20260510104524 | 46 | 271 | 0.0 | 0.0 | 0.00 | 0.00 | 0.01 | 70 | 1010.6 |
| 20260510104022 | 46 | 271 | 0.0 | 0.0 | 0.00 | 0.00 | 0.01 | 69 | 1010.6 |
| 20260510103522 | 46 | 271 | 0.0 | 0.0 | 0.00 | 0.00 | 0.01 | 69 | 1010.5 |
| 20260510103024 | 46 | 293 | 0.0 | 0.0 | 0.00 | 0.00 | 0.01 | 69 | 1010.2 |
| 20260510102522 | 46 | 293 | 0.0 | 0.0 | 0.00 | 0.00 | 0.01 | 69 | 1010.3 |
| 20260510102024 | 46 | 289 | 0.0 | 0.0 | 0.00 | 0.00 | 0.01 | 69 | 1010.2 |
| 20260510101519 | 46 | 282 | 0.0 | 0.0 | 0.00 | 0.00 | 0.01 | 71 | 1010.1 |
| 20260510101019 | 46 | 317 | 0.0 | 0.0 | 0.00 | 0.00 | 0.01 | 70 | 1009.7 |
| 20260510100517 | 46 | 317 | 0.0 | 0.0 | 0.00 | 0.00 | 0.01 | 70 | 1009.7 |
| 20260510100017 | 46 | 302 | 0.0 | 0.0 | 0.00 | 0.00 | 0.01 | 70 | 1009.5 |
| 20260510095521 | 46 | 287 | 0.0 | 0.0 | 0.00 | 0.00 | 0.01 | 70 | 1009.5 |
| 20260510095017 | 46 | 291 | 0.0 | 0.0 | 0.00 | 0.00 | 0.01 | 70 | 1009.4 |
| 20260510094533 | 47 | 290 | 0.0 | 0.0 | 0.00 | 0.00 | 0.01 | 71 | 1009.2 |
| 20260510094014 | 47 | 284 | 0.0 | 0.0 | 0.00 | 0.00 | 0.01 | 73 | 1009.1 |
| 20260510093514 | 47 | 270 | 0.0 | 0.0 | 0.00 | 0.00 | 0.01 | 74 | 1009.3 |
| 20260510093014 | 47 | 301 | 0.0 | 0.0 | 0.00 | 0.00 | 0.01 | 75 | 1009.3 |
| 20260510092520 | 47 | 265 | 0.0 | 0.0 | 0.00 | 0.00 | 0.01 | 76 | 1009.2 |
| 20260510092013 | 47 | 291 | 0.0 | 0.0 | 0.00 | 0.00 | 0.01 | 76 | 1009.1 |
| 20260510091513 | 47 | 291 | 0.0 | 0.0 | 0.00 | 0.00 | 0.01 | 76 | 1009.0 |
| 20260510091013 | 47 | 291 | 0.0 | 0.0 | 0.00 | 0.00 | 0.01 | 76 | 1009.1 |
| 20260510090513 | 47 | 291 | 0.0 | 0.0 | 0.00 | 0.00 | 0.01 | 76 | 1009.0 |
| 20260510090013 | 47 | 291 | 0.0 | 0.0 | 0.00 | 0.00 | 0.01 | 76 | 1009.0 |
| 20260510085512 | 47 | 322 | 0.0 | 0.0 | 0.00 | 0.00 | 0.01 | 75 | 1009.0 |
| 20260510085011 | 47 | 322 | 0.0 | 0.0 | 0.00 | 0.00 | 0.01 | 74 | 1008.5 |
| 20260510084517 | 47 | 322 | 0.0 | 0.0 | 0.00 | 0.00 | 0.01 | 73 | 1008.4 |
| 20260510084010 | 48 | 322 | 0.0 | 0.0 | 0.00 | 0.00 | 0.01 | 72 | 1008.3 |
| 20260510083509 | 48 | 318 | 0.0 | 0.0 | 0.00 | 0.00 | 0.01 | 73 | 1008.4 |
| 20260510083007 | 48 | 292 | 0.0 | 0.0 | 0.00 | 0.00 | 0.01 | 72 | 1008.5 |
| 20260510082506 | 49 | 262 | 0.0 | 0.0 | 0.00 | 0.00 | 0.01 | 72 | 1008.5 |
| 20260510082010 | 49 | 262 | 0.0 | 0.0 | 0.00 | 0.00 | 0.01 | 71 | 1008.4 |
| 20260510081507 | 49 | 262 | 0.0 | 0.0 | 0.00 | 0.00 | 0.00 | 72 | 1008.5 |
| 20260510081005 | 49 | 292 | 0.0 | 0.0 | 0.00 | 0.00 | 0.00 | 73 | 1008.8 |
| 20260510080504 | 49 | 322 | 0.0 | 0.0 | 0.00 | 0.00 | 0.00 | 73 | 1008.3 |
| 20260510080007 | 49 | 298 | 0.0 | 0.0 | 0.00 | 0.00 | 0.00 | 74 | 1008.3 |
| 20260510075502 | 50 | 298 | 0.0 | 0.0 | 0.00 | 0.00 | 0.00 | 74 | 1008.2 |
| 20260510075005 | 50 | 277 | 0.0 | 0.0 | 0.00 | 0.00 | 0.00 | 76 | 1008.3 |
| 20260510074502 | 50 | 286 | 0.0 | 0.0 | 0.00 | 0.00 | 0.00 | 75 | 1008.5 |
| 20260510074100 | 50 | 286 | 0.0 | 0.0 | 0.00 | 0.00 | 0.00 | 75 | 1008.2 |
| 20260510073600 | 50 | 328 | 0.0 | 0.0 | 0.00 | 0.00 | 0.00 | 75 | 1007.8 |
| 20260510073100 | 50 | 346 | 0.0 | 0.0 | 0.00 | 0.00 | 0.00 | 76 | 1007.6 |
| 20260510072600 | 50 | 302 | 0.0 | 0.0 | 0.00 | 0.00 | 0.00 | 76 | 1008.2 |
| 20260510072057 | 50 | 276 | 0.0 | 0.0 | 0.00 | 0.00 | 0.00 | 78 | 1007.7 |
| 20260510071556 | 51 | 342 | 0.0 | 0.0 | 0.00 | 0.00 | 0.00 | 80 | 1007.5 |
| 20260510071056 | 51 | 329 | 0.0 | 0.0 | 0.00 | 0.00 | 0.00 | 81 | 1007.5 |
| 20260510070557 | 51 | 329 | 0.0 | 0.0 | 0.00 | 0.00 | 0.00 | 82 | 1007.3 |
| 20260510070054 | 51 | 287 | 0.0 | 0.0 | 0.00 | 0.00 | 0.00 | 83 | 1007.7 |
| 20260510065554 | 51 | 320 | 0.0 | 0.0 | 0.00 | 0.00 | 0.00 | 84 | 1007.4 |
| 20260510065051 | 51 | 326 | 0.0 | 0.0 | 0.00 | 0.00 | 0.00 | 85 | 1007.2 |
| 20260510064559 | 51 | 327 | 0.0 | 0.0 | 0.00 | 0.00 | 0.00 | 86 | 1007.0 |
| 20260510064051 | 51 | 327 | 0.0 | 0.0 | 0.00 | 0.00 | 0.00 | 86 | 1007.2 |
| 20260510063551 | 51 | 327 | 0.0 | 0.0 | 0.00 | 0.00 | 0.00 | 86 | 1007.2 |
| 20260510063051 | 51 | 327 | 0.0 | 0.0 | 0.00 | 0.00 | 0.00 | 87 | 1007.2 |
| 20260510062551 | 51 | 327 | 0.0 | 0.0 | 0.00 | 0.00 | 0.00 | 88 | 1006.9 |
| 20260510062049 | 51 | 327 | 0.0 | 0.0 | 0.00 | 0.00 | 0.00 | 88 | 1006.8 |
| 20260510061548 | 51 | 328 | 0.0 | 0.0 | 0.00 | 0.00 | 0.00 | 88 | 1006.8 |
| 20260510061049 | 51 | 348 | 0.0 | 0.0 | 0.00 | 0.00 | 0.00 | 89 | 1006.9 |
| 20260510060551 | 51 | 298 | 0.0 | 0.0 | 0.00 | 0.00 | 0.00 | 89 | 1006.9 |
| 20260510060047 | 51 | 298 | 0.0 | 0.0 | 0.00 | 0.00 | 0.00 | 89 | 1006.8 |
| 20260510055547 | 52 | 302 | 0.0 | 0.0 | 0.00 | 0.00 | 0.00 | 89 | 1006.8 |
| 20260510055047 | 52 | 302 | 0.0 | 0.0 | 0.00 | 0.00 | 0.00 | 89 | 1006.9 |
| 20260510054547 | 52 | 251 | 0.0 | 0.0 | 0.00 | 0.00 | 0.00 | 89 | 1007.0 |
| 20260510054046 | 51 | 259 | 0.0 | 0.0 | 0.00 | 0.00 | 0.00 | 89 | 1006.8 |
| 20260510053545 | 51 | 249 | 0.0 | 0.0 | 0.00 | 0.00 | 0.00 | 89 | 1006.7 |
| 20260510053045 | 51 | 249 | 0.0 | 0.0 | 0.00 | 0.00 | 0.00 | 89 | 1006.8 |
| 20260510052547 | 52 | 249 | 0.0 | 0.0 | 0.00 | 0.00 | 0.00 | 89 | 1006.5 |
| 20260510052044 | 51 | 249 | 0.0 | 0.0 | 0.00 | 0.00 | 0.00 | 89 | 1006.6 |
| 20260510051543 | 51 | 249 | 0.0 | 0.0 | 0.00 | 0.00 | 0.00 | 89 | 1006.3 |
| 20260510051044 | 51 | 249 | 0.0 | 0.0 | 0.00 | 0.00 | 0.00 | 89 | 1006.3 |
| 20260510050541 | 52 | 249 | 0.0 | 0.0 | 0.00 | 0.00 | 0.00 | 89 | 1006.2 |
| 20260510050041 | 52 | 249 | 0.0 | 0.0 | 0.00 | 0.00 | 0.00 | 88 | 1006.1 |
| 20260510045542 | 52 | 249 | 0.0 | 0.0 | 0.00 | 0.00 | 0.00 | 89 | 1006.0 |
| 20260510045040 | 52 | 249 | 0.0 | 0.0 | 0.00 | 0.00 | 0.00 | 89 | 1005.9 |
| 20260510044544 | 52 | 257 | 0.0 | 0.0 | 0.00 | 0.00 | 0.00 | 89 | 1006.0 |
| 20260510044040 | 52 | 269 | 0.0 | 0.0 | 0.00 | 0.00 | 0.00 | 89 | 1006.1 |
| 20260510043539 | 51 | 213 | 0.0 | 0.0 | 0.00 | 0.00 | 0.00 | 89 | 1005.9 |
| 20260510043038 | 51 | 213 | 0.0 | 0.0 | 0.00 | 0.00 | 0.00 | 89 | 1005.7 |
| 20260510042541 | 51 | 213 | 0.0 | 0.0 | 0.00 | 0.00 | 0.00 | 88 | 1005.6 |
| 20260510042036 | 51 | 213 | 0.0 | 0.0 | 0.00 | 0.00 | 0.00 | 88 | 1005.4 |
| 20260510041541 | 52 | 213 | 0.0 | 0.0 | 0.00 | 0.00 | 0.00 | 88 | 1005.2 |
| 20260510041035 | 52 | 213 | 0.0 | 0.0 | 0.00 | 0.00 | 0.00 | 88 | 1005.3 |
| 20260510040535 | 52 | 213 | 0.0 | 0.0 | 0.00 | 0.00 | 0.00 | 88 | 1005.0 |
| 20260510040033 | 52 | 213 | 0.0 | 0.0 | 0.00 | 0.00 | 0.00 | 88 | 1004.8 |
| 20260510035534 | 52 | 213 | 0.0 | 0.0 | 0.00 | 0.00 | 0.16 | 88 | 1005.0 |
| 20260510035033 | 52 | 213 | 0.0 | 0.0 | 0.00 | 0.00 | 0.16 | 88 | 1004.9 |
| 20260510034533 | 52 | 213 | 0.0 | 0.0 | 0.00 | 0.00 | 0.16 | 88 | 1004.8 |
| 20260510034033 | 52 | 213 | 0.0 | 0.0 | 0.00 | 0.00 | 0.16 | 88 | 1005.0 |
| 20260510033532 | 52 | 213 | 0.0 | 0.0 | 0.00 | 0.00 | 0.16 | 88 | 1005.0 |
| 20260510033032 | 52 | 213 | 0.0 | 0.0 | 0.00 | 0.00 | 0.16 | 88 | 1004.9 |
| 20260510032534 | 52 | 229 | 0.0 | 0.0 | 0.00 | 0.00 | 0.16 | 88 | 1005.2 |
| 20260510032032 | 52 | 232 | 0.0 | 0.0 | 0.00 | 0.00 | 0.16 | 87 | 1005.1 |
| 20260510031532 | 52 | 232 | 0.0 | 0.0 | 0.00 | 0.00 | 0.16 | 87 | 1005.0 |
| 20260510031032 | 52 | 232 | 0.0 | 0.0 | 0.00 | 0.00 | 0.16 | 87 | 1005.1 |
| 20260510030531 | 52 | 232 | 0.0 | 0.0 | 0.00 | 0.00 | 0.16 | 87 | 1005.0 |
| 20260510030037 | 52 | 232 | 0.0 | 0.0 | 0.00 | 0.00 | 0.16 | 86 | 1005.0 |
| 20260510025531 | 53 | 232 | 0.0 | 0.0 | 0.00 | 0.00 | 0.16 | 86 | 1004.9 |
| 20260510025032 | 53 | 232 | 0.0 | 0.0 | 0.00 | 0.00 | 0.16 | 86 | 1004.9 |
| 20260510024532 | 53 | 232 | 0.0 | 0.0 | 0.00 | 0.00 | 0.16 | 86 | 1004.9 |
| 20260510024031 | 53 | 228 | 0.0 | 0.0 | 0.00 | 0.00 | 0.16 | 86 | 1004.8 |
| 20260510023531 | 53 | 228 | 0.0 | 0.0 | 0.00 | 0.00 | 0.16 | 86 | 1004.7 |
| 20260510023031 | 53 | 216 | 0.0 | 0.0 | 0.00 | 0.00 | 0.16 | 86 | 1004.6 |
| 20260510022533 | 53 | 214 | 0.0 | 0.0 | 0.00 | 0.00 | 0.16 | 86 | 1004.5 |
| 20260510022031 | 53 | 190 | 0.0 | 0.0 | 0.00 | 0.00 | 0.16 | 86 | 1004.2 |
| 20260510021531 | 53 | 211 | 0.0 | 0.0 | 0.00 | 0.00 | 0.16 | 86 | 1004.3 |
| 20260510021029 | 53 | 195 | 0.0 | 0.0 | 0.00 | 0.00 | 0.16 | 85 | 1004.2 |
| 20260510020530 | 54 | 210 | 0.0 | 0.0 | 0.00 | 0.00 | 0.16 | 86 | 1004.3 |
| 20260510020030 | 53 | 237 | 0.0 | 0.0 | 0.00 | 0.00 | 0.16 | 86 | 1004.3 |
| 20260510015530 | 53 | 213 | 0.0 | 0.0 | 0.00 | 0.00 | 0.16 | 87 | 1004.3 |
| 20260510015029 | 53 | 212 | 0.0 | 0.0 | 0.00 | 0.00 | 0.16 | 87 | 1004.3 |
| 20260510014529 | 53 | 171 | 0.0 | 0.0 | 0.00 | 0.00 | 0.16 | 87 | 1004.3 |
| 20260510014030 | 53 | 219 | 0.0 | 0.0 | 0.00 | 0.00 | 0.16 | 87 | 1004.2 |
| 20260510013529 | 53 | 196 | 0.0 | 0.0 | 0.00 | 0.00 | 0.16 | 87 | 1004.2 |
| 20260510013031 | 53 | 219 | 0.0 | 0.0 | 0.00 | 0.00 | 0.16 | 88 | 1004.1 |
| 20260510012528 | 53 | 204 | 0.0 | 0.0 | 0.00 | 0.00 | 0.16 | 88 | 1004.1 |
| 20260510012029 | 52 | 219 | 0.0 | 0.0 | 0.00 | 0.00 | 0.16 | 88 | 1004.1 |
| 20260510011528 | 52 | 190 | 0.0 | 0.0 | 0.00 | 0.00 | 0.16 | 88 | 1004.0 |
| 20260510011028 | 52 | 200 | 0.0 | 0.0 | 0.00 | 0.00 | 0.16 | 88 | 1004.0 |
| 20260510010528 | 52 | 235 | 0.0 | 0.0 | 0.00 | 0.00 | 0.16 | 88 | 1003.9 |
| 20260510010027 | 52 | 215 | 0.0 | 0.0 | 0.00 | 0.00 | 0.16 | 88 | 1003.9 |
| 20260510005527 | 52 | 219 | 0.0 | 0.0 | 0.00 | 0.00 | 0.16 | 88 | 1003.9 |
| 20260510005026 | 52 | 234 | 0.0 | 0.0 | 0.00 | 0.00 | 0.16 | 88 | 1003.7 |
| 20260510004527 | 52 | 236 | 0.0 | 0.0 | 0.00 | 0.00 | 0.16 | 88 | 1003.4 |
| 20260510004027 | 52 | 188 | 0.0 | 0.0 | 0.00 | 0.00 | 0.16 | 87 | 1003.3 |
| 20260510003527 | 52 | 159 | 0.0 | 0.0 | 0.00 | 0.00 | 0.16 | 87 | 1003.2 |
| 20260510003035 | 52 | 187 | 0.0 | 0.0 | 0.00 | 0.00 | 0.16 | 87 | 1003.2 |
| 20260510002526 | 52 | 227 | 0.0 | 0.0 | 0.00 | 0.00 | 0.16 | 87 | 1003.2 |
| 20260510002026 | 52 | 172 | 0.0 | 0.0 | 0.00 | 0.00 | 0.16 | 88 | 1003.1 |
| 20260510001526 | 52 | 219 | 0.0 | 0.0 | 0.00 | 0.00 | 0.16 | 88 | 1003.3 |
| 20260510001026 | 52 | 179 | 0.0 | 0.0 | 0.00 | 0.00 | 0.16 | 88 | 1003.3 |
| 20260510000525 | 52 | 163 | 0.0 | 0.0 | 0.00 | 0.00 | 0.16 | 88 | 1003.3 |
| 20260510000026 | 52 | 171 | 0.0 | 0.0 | 0.00 | 0.00 | 0.16 | 88 | 1003.4 |
| 20260509235525 | 52 | 168 | 0.0 | 0.0 | 0.00 | 0.00 | 0.16 | 88 | 1003.3 |
| 20260509235025 | 52 | 174 | 0.0 | 0.0 | 0.00 | 0.00 | 0.16 | 87 | 1003.1 |
| 20260509234531 | 52 | 163 | 0.0 | 0.0 | 0.00 | 0.00 | 0.16 | 87 | 1003.0 |
| 20260509234025 | 52 | 212 | 0.0 | 0.0 | 0.00 | 0.00 | 0.16 | 87 | 1003.2 |
| 20260509233524 | 52 | 216 | 0.0 | 0.0 | 0.00 | 0.00 | 0.15 | 86 | 1003.5 |
| 20260509233025 | 52 | 238 | 0.0 | 0.0 | 0.00 | 0.00 | 0.14 | 86 | 1004.0 |
| 20260509232524 | 52 | 259 | 0.0 | 0.0 | 0.00 | 0.00 | 0.14 | 86 | 1003.9 |
| 20260509232028 | 52 | 261 | 0.0 | 0.0 | 0.00 | 0.00 | 0.12 | 85 | 1004.0 |
| 20260509231523 | 52 | 309 | 0.0 | 0.0 | 0.00 | 0.00 | 0.12 | 85 | 1004.1 |
| 20260509231023 | 53 | 278 | 0.0 | 0.0 | 0.00 | 0.00 | 0.10 | 84 | 1004.0 |
| 20260509230523 | 53 | 260 | 0.0 | 0.0 | 0.00 | 0.00 | 0.09 | 82 | 1004.2 |